History for Miami, FL

Wednesday, November 14, 2012 — View Current Conditions

Jump to Data:

Date:
Airport Code:
Recently Viewed Airport Codes: KMIA
Daily Summary
  Actual Average Record
Temperature
Mean Temperature 75°F 75°F  
Max Temperature 82°F 82°F 88°F (1941)
Min Temperature 67°F 68°F 42°F (1906)
Degree Days
Heating Degree Days 0 0  
Month to date heating degree days 1 0  
Since 1 July heating degree days 1 0  
Cooling Degree Days 10 10  
Month to date cooling degree days 106 156  
Year to date cooling degree days 4345 4228  
Growing Degree Days 24 (Base 50)    
Moisture
Dew Point 65°F    
Average Humidity 76    
Maximum Humidity 93    
Minimum Humidity 58    
Precipitation
Precipitation 0.16 in 0.12 in 1.37 in (1986)
Month to date precipitation 0.24 1.80  
Year to date precipitation 86.17 58.39  
Snow
Snow 0.00 in in in ()
Month to date snowfall 0.0  
Since 1 July snowfall 0.0  
Since 1 September snowfall 0.0  
Snow Depth 0.00 in    
Sea Level Pressure
Sea Level Pressure 30.08 in    
Wind
Wind Speed 6 mph (NE)    
Max Wind Speed 17 mph    
Max Gust Speed 28 mph    
Visibility 10 miles    
Events Rain    
T = Trace of Precipitation, MM = Missing Value Source: NWS Daily Summary

Show full METARS

(help) - Comma Delimited File

Hourly Observations

Time(EST) Temperature Dew Point Humidity Sea Level Pressure Visibility Wind Direction Wind Speed Gust Speed Precipitation Events Conditions
12:53 AM 70.0°F 66.0°F 87% 30.08 in 10.0 miles NW 3.5 mph - 0.03 in   Mostly Cloudy
1:53 AM 70.0°F 66.0°F 87% 30.06 in 10.0 miles NNW 3.5 mph - 0.01 in   Mostly Cloudy
2:53 AM 70.0°F 66.0°F 87% 30.06 in 10.0 miles North 3.5 mph - N/A   Mostly Cloudy
3:53 AM 69.1°F 64.9°F 87% 30.06 in 10.0 miles North 3.5 mph - N/A   Scattered Clouds
4:53 AM 66.9°F 64.9°F 93% 30.06 in 10.0 miles Calm Calm - N/A   Clear
5:53 AM 68.0°F 64.9°F 90% 30.06 in 10.0 miles NW 3.5 mph - N/A   Clear
6:53 AM 69.1°F 64.9°F 87% 30.08 in 10.0 miles NW 4.6 mph - N/A   Mostly Cloudy
7:53 AM 70.0°F 66.9°F 90% 30.10 in 10.0 miles Calm Calm - N/A   Mostly Cloudy
8:53 AM 73.9°F 66.9°F 79% 30.12 in 10.0 miles NW 4.6 mph - N/A   Mostly Cloudy
9:53 AM 73.9°F 69.1°F 85% 30.12 in 7.0 miles Calm Calm - 0.12 in Rain Light Rain
10:53 AM 79.0°F 68.0°F 69% 30.11 in 10.0 miles East 9.2 mph - 0.00 in   Mostly Cloudy
11:53 AM 80.1°F 64.9°F 60% 30.09 in 10.0 miles ENE 11.5 mph - N/A   Mostly Cloudy
12:53 PM 80.1°F 64.9°F 60% 30.07 in 10.0 miles ENE 11.5 mph 18.4 mph N/A   Mostly Cloudy
1:53 PM 79.0°F 64.0°F 60% 30.06 in 10.0 miles ENE 11.5 mph 16.1 mph N/A   Mostly Cloudy
2:53 PM 79.0°F 64.0°F 60% 30.06 in 10.0 miles East 12.7 mph - N/A   Mostly Cloudy
3:53 PM 78.1°F 64.0°F 62% 30.06 in 10.0 miles East 13.8 mph - N/A   Mostly Cloudy
4:53 PM 77.0°F 64.9°F 66% 30.06 in 10.0 miles East 10.4 mph - N/A   Mostly Cloudy
5:53 PM 77.0°F 64.9°F 66% 30.07 in 10.0 miles ENE 9.2 mph - N/A   Mostly Cloudy
6:53 PM 77.0°F 63.0°F 62% 30.08 in 10.0 miles ENE 8.1 mph - N/A   Overcast
7:53 PM 75.9°F 64.0°F 67% 30.09 in 10.0 miles ENE 4.6 mph - N/A   Mostly Cloudy
8:53 PM 75.0°F 63.0°F 66% 30.10 in 10.0 miles NE 3.5 mph - N/A   Scattered Clouds
9:53 PM 73.9°F 63.0°F 68% 30.10 in 10.0 miles Calm Calm - N/A   Scattered Clouds
10:53 PM 73.9°F 63.0°F 68% 30.10 in 10.0 miles Calm Calm - N/A   Scattered Clouds
11:53 PM 72.0°F 64.9°F 78% 30.09 in 10.0 miles Calm Calm - N/A   Mostly Cloudy